{"data":{"norad_id":68225,"intl_designator":"2026-053U","name":"STARLINK-36960","alt_names":[],"object_type":"PAYLOAD","status":"ACTIVE","operator":null,"country":"US","launch_date":"2026-03-17","launch_site_code":"AFWTR","launch_vehicle":null,"mission":null,"orbit_class":"UNKNOWN","rcs_meters":null,"size_class":null,"mass_kg":null,"dimensions":null,"purposes":["comms"],"wikipedia_slug":null,"has_3d_model":false,"image_url":null,"decayed_at":null,"tle_current":{"epoch":"2026-05-25T02:43:32.867040Z","epoch_age_seconds":61441,"freshness":"FRESH","line1":"1 68225U 26053U   26145.11357485  .00018957  00000+0  58767-3 0  9996","line2":"2 68225  97.2865  20.6170 0001258  93.7467 266.3920 15.33465260 11915","mean_motion":15.3346526,"eccentricity":0.0001258,"inclination_deg":97.2865,"raan_deg":20.617,"arg_perigee_deg":93.7467,"mean_anomaly_deg":266.392,"bstar":0.00058767,"rev_number":1191,"period_min":93.904963976817,"perigee_km":464.62196825306,"apogee_km":466.3438230188,"semimajor_km":6843.6198956359,"source":"CELESTRAK","updated_at":"2026-05-25T13:38:21.881055Z"}}}